Weather History for Paynesville, MN

Change the Weather History Date:

Monday, March 25, 2013

  Actual Average (KLJF) Record (KLJF)
Temperature  
Mean Temperature 26 °F -  
Max Temperature 33 °F 45 °F 68 °F (1968)
Min Temperature 19 °F 25 °F -2 °F (1955)
Degree Days  
Heating Degree Days 39    
Moisture  
Dew Point 18 °F    
Average Humidity 69    
Maximum Humidity 84    
Minimum Humidity 52    
Precipitation  
Precipitation 0.00 in - - ()
Sea Level Pressure  
Sea Level Pressure 30.16 in    
Wind  
Wind Speed 9 mph (NW)    
Max Wind Speed 16 mph    
Max Gust Speed 22 mph    
Visibility 10 miles    
Events Snow    
Averages and records for this station are not official NWS values.
T = Trace of Precipitation, MM = Missing Value Source: NWS Daily Summary

Daily Weather History Graph

Daily Weather History Graph

Search for Another Location

Airport:

Trip Planner

Search our weather history database for the weather conditions in past years. The results will help you decide how hot, cold, wet, or windy it might be!

Date:

Astronomy

Mar. 25, 2013 Rise Set
Actual Time 7:12 AM CDT 7:38 PM CDT
Civil Twilight 6:42 AM CDT 8:08 PM CDT
Nautical Twilight 6:07 AM CDT 8:43 PM CDT
Astronomical Twilight 5:31 AM CDT 9:19 PM CDT
Moon 6:08 PM CDT (3/25) 5:59 AM CDT (3/25)
Length of Visible Light 13h 25m
Length of Day
12h 26m
Waxing Gibbous, 96% of the Moon is Illuminated
Mar 25
Waxing Gibbous
Mar 27
Full
Apr 2
Last Quarter
Apr 10
New
Apr 18
First Quarter

Hourly Weather History & Observations

Time (CDT) Temp. Windchill Dew Point Humidity Pressure Visibility Wind Dir Wind Speed Gust Speed Precip Events Conditions
12:13 AM 27.1 °F 18.2 °F 22.6 °F 83% 30.08 in 10.0 mi NW 9.2 mph - N/A Snow Light Snow
12:33 AM 27.5 °F 18.6 °F 22.6 °F 82% 30.08 in 10.0 mi NNW 9.2 mph - N/A Snow Light Snow
12:53 AM 27.5 °F 18.6 °F 22.6 °F 82% 30.08 in 10.0 mi NW 9.2 mph - N/A   Overcast
1:13 AM 27.3 °F 19.1 °F 22.6 °F 83% 30.08 in 10.0 mi NNW 8.1 mph - N/A Snow Light Snow
1:33 AM 27.1 °F 20.7 °F 22.8 °F 84% 30.08 in 10.0 mi North 5.8 mph - N/A   Overcast
1:52 AM 27.9 °F 21.5 °F 20.3 °F 73% 30.09 in 10.0 mi North 5.8 mph - N/A   Overcast
2:13 AM 27.5 °F 22.2 °F 19.4 °F 72% 30.09 in 10.0 mi North 4.6 mph - N/A   Overcast
2:33 AM 27.5 °F 21.1 °F 19.2 °F 71% 30.09 in 10.0 mi North 5.8 mph - N/A   Overcast
2:53 AM 27.3 °F 20.9 °F 19.4 °F 72% 30.09 in 10.0 mi North 5.8 mph - N/A   Overcast
3:13 AM 27.0 °F 20.5 °F 19.4 °F 73% 30.09 in 10.0 mi North 5.8 mph - N/A   Overcast
3:33 AM 27.0 °F 19.5 °F 19.0 °F 72% 30.09 in 10.0 mi North 6.9 mph - N/A   Overcast
3:53 AM 26.6 °F 18.2 °F 18.9 °F 73% 30.09 in 10.0 mi NNW 8.1 mph - N/A   Overcast
4:13 AM 26.6 °F 18.2 °F 18.5 °F 71% 30.09 in 10.0 mi NNW 8.1 mph - N/A   Overcast
4:33 AM 25.7 °F 18.0 °F 18.3 °F 74% 30.09 in 10.0 mi NNW 6.9 mph - N/A   Overcast
4:53 AM 25.7 °F 18.0 °F 18.1 °F 73% 30.09 in 10.0 mi NW 6.9 mph - N/A   Overcast
5:12 AM 25.2 °F 16.5 °F 18.1 °F 75% 30.10 in 10.0 mi NNW 8.1 mph - N/A   Overcast
5:33 AM 25.7 °F 16.4 °F 18.1 °F 73% 30.10 in 10.0 mi NNW 9.2 mph - N/A   Overcast
5:53 AM 25.7 °F 16.4 °F 17.6 °F 71% 30.10 in 10.0 mi NNW 9.2 mph - N/A   Overcast
6:13 AM 25.5 °F 16.2 °F 17.8 °F 72% 30.11 in 10.0 mi NNW 9.2 mph - N/A   Overcast
6:33 AM 25.5 °F 15.5 °F 17.6 °F 72% 30.11 in 10.0 mi NNW 10.4 mph - N/A   Overcast
6:53 AM 25.2 °F 16.5 °F 17.4 °F 72% 30.12 in 10.0 mi NNW 8.1 mph - N/A   Overcast
7:12 AM 24.8 °F 15.3 °F 17.2 °F 73% 30.13 in 10.0 mi NNW 9.2 mph - N/A   Overcast
7:33 AM 24.8 °F 15.3 °F 17.2 °F 73% 30.13 in 10.0 mi NNW 9.2 mph - N/A   Overcast
7:53 AM 24.8 °F 15.3 °F 17.2 °F 73% 30.14 in 10.0 mi NNW 9.2 mph - N/A   Overcast
8:13 AM 25.3 °F 15.3 °F 17.2 °F 71% 30.15 in 10.0 mi NNW 10.4 mph - N/A   Overcast
8:33 AM 25.5 °F 15.5 °F 16.7 °F 69% 30.15 in 10.0 mi NNW 10.4 mph - N/A   Mostly Cloudy
8:53 AM 25.5 °F 16.2 °F 16.7 °F 69% 30.16 in 10.0 mi NNW 9.2 mph - N/A   Mostly Cloudy
9:13 AM 26.2 °F 17.1 °F 16.7 °F 67% 30.16 in 10.0 mi NNW 9.2 mph - N/A   Mostly Cloudy
9:33 AM 26.4 °F 16.6 °F 16.9 °F 67% 30.16 in 10.0 mi NNW 10.4 mph 16.1 mph N/A   Clear
9:53 AM 27.1 °F 17.5 °F 17.2 °F 66% 30.17 in 10.0 mi NNW 10.4 mph - N/A   Clear
10:13 AM 27.5 °F 16.8 °F 16.9 °F 64% 30.17 in 10.0 mi North 12.7 mph - N/A   Clear
10:33 AM 28.0 °F 17.5 °F 17.2 °F 64% 30.17 in 10.0 mi NNW 12.7 mph 16.1 mph N/A   Scattered Clouds
10:53 AM 28.4 °F 18.5 °F 17.4 °F 63% 30.18 in 10.0 mi NNW 11.5 mph 17.3 mph N/A   Scattered Clouds
11:13 AM 28.6 °F 19.9 °F 17.4 °F 63% 30.18 in 10.0 mi NNW 9.2 mph 17.3 mph N/A   Clear
11:33 AM 29.8 °F 21.5 °F 17.8 °F 61% 30.18 in 10.0 mi North 9.2 mph - N/A   Clear
11:53 AM 30.2 °F 21.3 °F 18.0 °F 60% 30.18 in 10.0 mi NW 10.4 mph 16.1 mph N/A   Clear
12:13 PM 30.4 °F 20.5 °F 17.8 °F 60% 30.18 in 10.0 mi NW 12.7 mph - N/A   Clear
12:33 PM 31.1 °F 20.9 °F 18.1 °F 59% 30.18 in 10.0 mi NNW 13.8 mph - N/A   Clear
12:53 PM 31.5 °F 21.8 °F 17.8 °F 57% 30.18 in 10.0 mi NW 12.7 mph 18.4 mph N/A   Clear
1:13 PM 31.8 °F 22.8 °F 17.8 °F 56% 30.18 in 10.0 mi NNW 11.5 mph - N/A   Clear
1:33 PM 32.0 °F 22.5 °F 17.1 °F 54% 30.18 in 10.0 mi NNW 12.7 mph - N/A   Clear
1:53 PM 32.0 °F 23.0 °F 17.4 °F 55% 30.18 in 10.0 mi NNW 11.5 mph - N/A   Clear
2:13 PM 32.4 °F 23.5 °F 17.6 °F 55% 30.18 in 10.0 mi NW 11.5 mph - N/A   Clear
2:33 PM 32.5 °F 23.7 °F 17.1 °F 53% 30.17 in 10.0 mi NW 11.5 mph - N/A   Scattered Clouds
2:53 PM 32.9 °F 24.1 °F 17.1 °F 52% 30.17 in 10.0 mi NNW 11.5 mph - N/A   Mostly Cloudy
3:13 PM 32.9 °F 24.1 °F 17.4 °F 53% 30.17 in 10.0 mi NW 11.5 mph - N/A   Scattered Clouds
3:33 PM 32.9 °F 24.1 °F 17.6 °F 53% 30.17 in 10.0 mi NW 11.5 mph - N/A   Scattered Clouds
3:53 PM 32.9 °F 25.3 °F 17.8 °F 54% 30.17 in 10.0 mi NW 9.2 mph - N/A   Scattered Clouds
4:13 PM 32.9 °F 24.1 °F 18.0 °F 54% 30.18 in 10.0 mi NW 11.5 mph - N/A   Scattered Clouds
4:33 PM 32.9 °F 24.7 °F 17.4 °F 53% 30.18 in 10.0 mi NW 10.4 mph 17.3 mph N/A   Clear
4:53 PM 33.1 °F 25.5 °F 18.3 °F 55% 30.18 in 10.0 mi WNW 9.2 mph - N/A   Clear
5:13 PM 32.7 °F 24.5 °F 19.9 °F 59% 30.18 in 10.0 mi WNW 10.4 mph - N/A   Clear
5:33 PM 32.9 °F 25.3 °F 18.7 °F 56% 30.18 in 10.0 mi WNW 9.2 mph - N/A   Clear
5:53 PM 32.0 °F 24.2 °F 19.0 °F 59% 30.19 in 10.0 mi WNW 9.2 mph - N/A   Clear
6:13 PM 32.0 °F 21.2 °F 18.5 °F 58% 30.19 in 10.0 mi WNW 16.1 mph 21.9 mph N/A   Clear
6:33 PM 29.7 °F 19.6 °F 21.6 °F 72% 30.20 in 10.0 mi WNW 12.7 mph 19.6 mph N/A   Clear
6:53 PM 28.6 °F 17.7 °F 21.2 °F 74% 30.21 in 10.0 mi WNW 13.8 mph 19.6 mph N/A   Clear
7:13 PM 27.9 °F 17.8 °F 20.8 °F 75% 30.21 in 10.0 mi WNW 11.5 mph - N/A   Clear
7:33 PM 27.0 °F 16.7 °F 20.3 °F 76% 30.22 in 10.0 mi WNW 11.5 mph - N/A   Clear
7:53 PM 26.2 °F 15.2 °F 19.8 °F 76% 30.22 in 10.0 mi WNW 12.7 mph - N/A   Clear
8:13 PM 25.7 °F 14.0 °F 19.4 °F 77% 30.23 in 10.0 mi WNW 13.8 mph 18.4 mph N/A   Clear
8:32 PM 24.8 °F 14.6 °F 18.9 °F 78% 30.23 in 10.0 mi WNW 10.4 mph 16.1 mph N/A   Clear
8:53 PM 24.1 °F 13.7 °F 18.3 °F 79% 30.24 in 10.0 mi WNW 10.4 mph 17.3 mph N/A   Clear
9:13 PM 23.5 °F 13.7 °F 18.0 °F 79% 30.24 in 10.0 mi WNW 9.2 mph - N/A   Clear
9:32 PM 23.0 °F 13.1 °F 17.6 °F 80% 30.24 in 10.0 mi WNW 9.2 mph - N/A   Clear
9:53 PM 22.1 °F 12.8 °F 17.2 °F 82% 30.25 in 10.0 mi WNW 8.1 mph - N/A   Clear
10:13 PM 21.7 °F 13.2 °F 16.7 °F 81% 30.25 in 10.0 mi WNW 6.9 mph - N/A   Clear
10:33 PM 21.4 °F 13.8 °F 16.5 °F 82% 30.25 in 10.0 mi WNW 5.8 mph - N/A   Clear
10:53 PM 21.0 °F 12.4 °F 16.2 °F 81% 30.25 in 10.0 mi WNW 6.9 mph - N/A   Clear
11:13 PM 20.8 °F 10.4 °F 15.8 °F 81% 30.25 in 10.0 mi WNW 9.2 mph - N/A   Clear
11:33 PM 19.9 °F 11.1 °F 15.3 °F 82% 30.26 in 10.0 mi West 6.9 mph - N/A   Clear
11:53 PM 19.4 °F 10.4 °F 14.9 °F 83% 30.26 in 10.0 mi West 6.9 mph - N/A   Clear